Time,TemperatureF,DewpointF,PressureIn,WindDirection,WindDirectionDegrees,WindSpeedMPH,WindSpeedGustMPH,Humidity,HourlyPrecipIn,Conditions,Clouds,dailyrainin,SolarRadiationWatts/m^2,SoftwareType,DateUTC
2013-07-24 00:02:00,49.0,49.0,-100.00,NNE,13,4.0,7.0,100,0.00,,,0.00,0.000000,,2013-07-24 07:02:00,
2013-07-24 00:11:00,49.0,49.0,-100.00,NNE,13,4.0,7.0,100,0.00,,,0.00,0.000000,,2013-07-24 07:11:00,
2013-07-24 00:43:00,49.0,49.0,-100.00,NNE,14,4.0,7.0,100,0.00,,,0.00,0.000000,,2013-07-24 07:43:00,
2013-07-24 00:53:00,49.0,49.0,-100.00,NNE,14,4.0,7.0,100,0.00,,,0.00,0.000000,,2013-07-24 07:53:00,
2013-07-24 01:02:00,49.0,49.0,-100.00,NNE,14,4.0,7.0,100,0.00,,,0.00,0.000000,,2013-07-24 08:02:00,
2013-07-24 01:12:00,49.0,49.0,-100.00,NNE,14,4.0,7.0,100,0.00,,,0.00,0.000000,,2013-07-24 08:12:00,
2013-07-24 01:43:00,49.0,49.0,-100.00,NNE,18,3.0,7.0,100,0.00,,,0.00,0.000000,,2013-07-24 08:43:00,
2013-07-24 01:52:00,49.0,49.0,-100.00,NNE,18,3.0,7.0,100,0.00,,,0.00,0.000000,,2013-07-24 08:52:00,
2013-07-24 02:02:00,49.0,49.0,-100.00,NNE,18,3.0,7.0,100,0.00,,,0.00,0.000000,,2013-07-24 09:02:00,
2013-07-24 02:11:00,49.0,49.0,-100.00,NNE,18,3.0,7.0,100,0.00,,,0.00,0.000000,,2013-07-24 09:11:00,
2013-07-24 02:43:00,48.0,48.0,-100.00,NNE,27,4.0,9.0,100,0.00,,,0.00,0.000000,,2013-07-24 09:43:00,
2013-07-24 02:53:00,48.0,48.0,-100.00,NNE,27,4.0,9.0,100,0.00,,,0.00,0.000000,,2013-07-24 09:53:00,
2013-07-24 03:02:00,48.0,48.0,-100.00,NNE,27,4.0,9.0,100,0.00,,,0.00,0.000000,,2013-07-24 10:02:00,
2013-07-24 03:12:00,48.0,48.0,-100.00,NNE,27,4.0,9.0,100,0.00,,,0.00,0.000000,,2013-07-24 10:12:00,
2013-07-24 03:43:00,48.0,48.0,-100.00,NE,40,4.0,9.0,100,0.00,,,0.00,0.000000,,2013-07-24 10:43:00,
2013-07-24 03:53:00,48.0,48.0,-100.00,NE,40,4.0,9.0,100,0.00,,,0.00,0.000000,,2013-07-24 10:53:00,
2013-07-24 04:02:00,48.0,48.0,-100.00,NE,40,4.0,9.0,100,0.00,,,0.00,0.000000,,2013-07-24 11:02:00,
2013-07-24 04:11:00,48.0,48.0,-100.00,NE,40,4.0,9.0,100,0.00,,,0.00,0.000000,,2013-07-24 11:11:00,
2013-07-24 04:32:00,48.0,48.0,-100.00,NNE,14,4.0,7.0,100,0.00,,,0.00,0.000000,,2013-07-24 11:32:00,
2013-07-24 04:44:00,48.0,48.0,-100.00,NNE,14,4.0,7.0,100,0.00,,,0.00,0.000000,,2013-07-24 11:44:00,
2013-07-24 04:52:00,48.0,48.0,-100.00,NNE,14,4.0,7.0,100,0.00,,,0.00,0.000000,,2013-07-24 11:52:00,
2013-07-24 05:02:00,48.0,48.0,-100.00,NNE,14,4.0,7.0,100,0.00,,,0.00,0.000000,,2013-07-24 12:02:00,
2013-07-24 05:11:00,48.0,48.0,-100.00,NNE,14,4.0,7.0,100,0.00,,,0.00,0.000000,,2013-07-24 12:11:00,
2013-07-24 05:42:00,47.0,47.0,-100.00,North,10,4.0,9.0,100,0.00,,,0.00,0.000000,,2013-07-24 12:42:00,
2013-07-24 05:52:00,47.0,47.0,-100.00,North,10,4.0,9.0,100,0.00,,,0.00,0.000000,,2013-07-24 12:52:00,
2013-07-24 06:02:00,47.0,47.0,-100.00,North,10,4.0,9.0,100,0.00,,,0.00,0.000000,,2013-07-24 13:02:00,
2013-07-24 06:11:00,47.0,47.0,-100.00,North,10,4.0,9.0,100,0.00,,,0.00,0.000000,,2013-07-24 13:11:00,
2013-07-24 06:43:00,47.0,47.0,-100.00,NE,34,3.0,5.0,100,0.00,,,0.00,1.000000,,2013-07-24 13:43:00,
2013-07-24 06:53:00,47.0,47.0,-100.00,NE,34,3.0,5.0,100,0.00,,,0.00,1.000000,,2013-07-24 13:53:00,
2013-07-24 07:02:00,47.0,47.0,-100.00,NE,34,3.0,5.0,100,0.00,,,0.00,1.000000,,2013-07-24 14:02:00,
2013-07-24 07:12:00,47.0,47.0,-100.00,NE,34,3.0,5.0,100,0.00,,,0.00,1.000000,,2013-07-24 14:12:00,
2013-07-24 07:43:00,47.0,47.0,-100.00,NNE,33,3.0,5.0,100,0.00,,,0.00,24.000000,,2013-07-24 14:43:00,
2013-07-24 07:55:00,47.0,47.0,-100.00,NNE,33,3.0,5.0,100,0.00,,,0.00,24.000000,,2013-07-24 14:55:00,
2013-07-24 08:02:00,47.0,47.0,-100.00,NNE,33,3.0,5.0,100,0.00,,,0.00,24.000000,,2013-07-24 15:02:00,
2013-07-24 08:12:00,47.0,47.0,-100.00,NNE,33,3.0,5.0,100,0.00,,,0.00,24.000000,,2013-07-24 15:12:00,
2013-07-24 08:33:00,48.0,48.0,-100.00,NNE,25,4.0,7.0,100,0.00,,,0.00,74.000000,,2013-07-24 15:33:00,
2013-07-24 08:43:00,48.0,48.0,-100.00,NNE,25,4.0,7.0,100,0.00,,,0.00,74.000000,,2013-07-24 15:43:00,
2013-07-24 08:53:00,48.0,48.0,-100.00,NNE,25,4.0,7.0,100,0.00,,,0.00,74.000000,,2013-07-24 15:53:00,
2013-07-24 09:02:00,48.0,48.0,-100.00,NNE,25,4.0,7.0,100,0.00,,,0.00,74.000000,,2013-07-24 16:02:00,
2013-07-24 09:12:00,48.0,48.0,-100.00,NNE,25,4.0,7.0,100,0.00,,,0.00,74.000000,,2013-07-24 16:12:00,
2013-07-24 09:33:00,49.0,49.0,-100.00,NNE,29,4.0,7.0,100,0.00,,,0.00,170.000000,,2013-07-24 16:33:00,
2013-07-24 09:43:00,49.0,49.0,-100.00,NNE,29,4.0,7.0,100,0.00,,,0.00,170.000000,,2013-07-24 16:43:00,
2013-07-24 09:53:00,49.0,49.0,-100.00,NNE,29,4.0,7.0,100,0.00,,,0.00,170.000000,,2013-07-24 16:53:00,
2013-07-24 10:02:00,49.0,49.0,-100.00,NNE,29,4.0,7.0,100,0.00,,,0.00,170.000000,,2013-07-24 17:02:00,
2013-07-24 10:12:00,49.0,49.0,-100.00,NNE,29,4.0,7.0,100,0.00,,,0.00,170.000000,,2013-07-24 17:12:00,
2013-07-24 10:33:00,50.0,50.0,-100.00,NNE,25,5.0,9.0,100,0.00,,,0.00,246.000000,,2013-07-24 17:33:00,
2013-07-24 10:43:00,50.0,50.0,-100.00,NNE,25,5.0,9.0,100,0.00,,,0.00,246.000000,,2013-07-24 17:43:00,
2013-07-24 10:53:00,50.0,50.0,-100.00,NNE,25,5.0,9.0,100,0.00,,,0.00,246.000000,,2013-07-24 17:53:00,
2013-07-24 11:02:00,50.0,50.0,-100.00,NNE,25,5.0,9.0,100,0.00,,,0.00,246.000000,,2013-07-24 18:02:00,
2013-07-24 11:11:00,50.0,50.0,-100.00,NNE,25,5.0,9.0,100,0.00,,,0.00,246.000000,,2013-07-24 18:11:00,
2013-07-24 11:33:00,52.0,52.0,-100.00,NNE,23,5.0,7.0,99,0.00,,,0.00,400.000000,,2013-07-24 18:33:00,
2013-07-24 11:43:00,52.0,52.0,-100.00,NNE,23,5.0,7.0,99,0.00,,,0.00,400.000000,,2013-07-24 18:43:00,
2013-07-24 11:52:00,52.0,52.0,-100.00,NNE,23,5.0,7.0,99,0.00,,,0.00,400.000000,,2013-07-24 18:52:00,
2013-07-24 12:02:00,52.0,52.0,-100.00,NNE,23,5.0,7.0,99,0.00,,,0.00,400.000000,,2013-07-24 19:02:00,
2013-07-24 12:12:00,52.0,52.0,-100.00,NNE,23,5.0,7.0,99,0.00,,,0.00,400.000000,,2013-07-24 19:12:00,
2013-07-24 20:02:00,50.0,50.0,-100.00,NNE,18,5.0,12.0,99,0.00,,,0.00,123.000000,,2013-07-25 03:02:00,
2013-07-24 20:45:00,49.0,49.0,-100.00,NNE,19,6.0,11.0,100,0.00,,,0.00,43.000000,,2013-07-25 03:45:00,
2013-07-24 20:52:00,49.0,49.0,-100.00,NNE,19,6.0,11.0,100,0.00,,,0.00,43.000000,,2013-07-25 03:52:00,
2013-07-24 21:02:00,49.0,49.0,-100.00,NNE,19,6.0,11.0,100,0.00,,,0.00,43.000000,,2013-07-25 04:02:00,
2013-07-24 21:11:00,49.0,49.0,-100.00,NNE,19,6.0,11.0,100,0.00,,,0.00,43.000000,,2013-07-25 04:11:00,
2013-07-24 21:43:00,49.0,49.0,-100.00,NNE,22,5.0,9.0,100,0.00,,,0.00,5.000000,,2013-07-25 04:43:00,
2013-07-24 21:53:00,49.0,49.0,-100.00,NNE,22,5.0,9.0,100,0.00,,,0.00,5.000000,,2013-07-25 04:53:00,
2013-07-24 22:02:00,49.0,49.0,-100.00,NNE,22,5.0,9.0,100,0.00,,,0.00,5.000000,,2013-07-25 05:02:00,
2013-07-24 22:12:00,49.0,49.0,-100.00,NNE,22,5.0,9.0,100,0.00,,,0.00,5.000000,,2013-07-25 05:12:00,
2013-07-24 22:43:00,48.0,48.0,-100.00,NNE,17,5.0,10.0,100,0.00,,,-99.99,0.000000,,2013-07-25 05:43:00,
2013-07-24 22:52:00,48.0,48.0,-100.00,NNE,17,5.0,10.0,100,0.00,,,-99.99,0.000000,,2013-07-25 05:52:00,
2013-07-24 23:02:00,48.0,48.0,-100.00,NNE,17,5.0,10.0,100,0.00,,,-99.99,0.000000,,2013-07-25 06:02:00,
2013-07-24 23:12:00,48.0,48.0,-100.00,NNE,17,5.0,10.0,100,0.00,,,-99.99,0.000000,,2013-07-25 06:12:00,
2013-07-24 23:32:00,48.0,48.0,-100.00,NNE,14,5.0,10.0,100,0.00,,,0.00,0.000000,,2013-07-25 06:32:00,
2013-07-24 23:42:00,48.0,48.0,-100.00,NNE,14,5.0,10.0,100,0.00,,,0.00,0.000000,,2013-07-25 06:42:00,
2013-07-24 23:52:00,48.0,48.0,-100.00,NNE,14,5.0,10.0,100,0.00,,,0.00,0.000000,,2013-07-25 06:52:00,